Location: Newark
(19.5361°N, 155.5761°W)
Time: 07:07:00
(UTC+00:00)

Hubble Space Telescope - Visible Passes

Search period start: 19 January 2020 00:00
Search period end: 29 January 2020 00:00
Orbit: 536 x 540 km, 28.5° (Epoch: 18 January)

Date Brightness Start Highest point End Pass type
(mag) Time Alt. Az. Time Alt. Az. Time Alt. Az.
19 Jan 3.3 04:58:35 10° WSW 05:01:38 20° SSW 05:04:41 10° SSE visible
20 Jan 3.6 04:48:37 10° WSW 04:50:58 15° SSW 04:53:19 10° S visible
21 Jan 4.0 04:39:24 10° SW 04:40:18 11° SSW 04:41:13 10° SSW visible
23 Jan 3.7 16:17:38 10° S 16:19:23 12° SSE 16:21:07 10° SE visible
24 Jan 3.5 16:06:01 10° S 16:08:43 17° SSE 16:11:25 10° ESE visible
25 Jan 3.0 15:54:47 10° SSW 15:58:03 23° SSE 16:01:19 10° E visible
26 Jan 2.5 15:43:45 10° SW 15:47:24 30° SSE 15:51:02 10° E visible
27 Jan 1.8 15:34:27 21° SSW 15:36:45 41° SSE 15:40:38 10° E visible
28 Jan 1.2 15:25:11 44° SSW 15:26:07 56° SSE 15:30:09 10° ENE visible
